Charter Quote
Worldwide +44-20-3874-8091 Call
Select Language Lang
SAFETY RELIABILITY EXPERIENCE

Cameri Airport (LIMN) - Jet Charter Services

AIRPORT INFORMATION
ICAOLIMN
IATALTT
LOCATIONCameri, Italy
FACILITY TYPEAIRPORT
Runway Length (ft) Width (ft) Surface Type Elevation (ft)
35/17 9818 94 ASP 585.60656

At Paramount Business Jets you can hire chartered private jets to and from Cameri Airport with as little as 4 hours of notice. All flights booked via Paramount Business Jets are operated by certified direct air carriers that meet and exceed the FAA part 135 and 121 protocol or a foreign equivalent safety authority. Furthermore, Paramount Business Jets subscribes to ARGUS for their third party safety checks of operators, aircraft, and crews prior each and every flight to and from Cameri Airport and worldwide.

  • Quote a trip using Cameri Airport or call us 24/7 - 365 days a year at +44-20-3874-8091.
Questions? Call +44-20-3874-8091

METAR Weather Data at Cameri Airport, LIMN, LTT

STATIONLIMN
OBSERVEDThu Jun 20, 12:55 UTC
NOWThu Jun 20, 13:51 UTC
AGE56 min ago
WINDS at 7 mph
VISIBILITY16 miles
CLOUDSpartly cloudy
TEMP82°F (28°C)
DEWPT57°F (14°C)
HUMIDITY42%
HEAT INDEX82°F (28°C)
BAROMETER1012 hPa (29.88 in Hg)
METARLIMN 201255Z 19006KT 160V240 9999 FEW020 FEW025CB 28/14 Q1012 RMK BKN BKN070 VIS MIN 9999 BLU

Call us on +44-20-3874-8091 (24 Hours) to Hire a Private Jet or Get a Quick Quote.

Find Airports Near any Location

Processing
...